Terminal Aerodrome Forecast
Issued by NWS

Home | Current Version | Previous Version | Text Only | Print | Product List | Glossary On
Versions: 1 2 3 4 5 6 7 8 9 10 11 12 13 14 15 16 17 18 19 20 21
925
FTUS41 KBGM 290853 AAA
TAFELM
TAF AMD
KELM 290853Z 2909/3006 16008KT 6SM -SHRA BR OVC012
     FM291000 17007KT P6SM -RA OVC007
     FM291500 19007KT P6SM BKN040
     FM300100 23004KT P6SM FEW060
     FM300500 00000KT P6SM BKN009=

USA.gov is the U.S. government's official web portal to all federal, state and local government web resources and services.